Cork, Ireland

12:23 PM GMT on January 18, 2017 (GMT +0000)
Cork

Weather History for EICK - January, 2012

Change the Weather History Date:

Thursday, January 12, 2012

  Actual Average Record
Temperature  
Mean Temperature 49 °F -  
Max Temperature 52 °F 46 °F 53 °F (2007)
Min Temperature 46 °F 37 °F 32 °F (2000)
Degree Days  
Heating Degree Days 16    
Moisture  
Dew Point 48 °F    
Average Humidity 95    
Maximum Humidity 100    
Minimum Humidity 86    
Precipitation  
Precipitation 0.02 in 0.18 in - ()
Sea Level Pressure  
Sea Level Pressure 30.44 in    
Wind  
Wind Speed 10 mph ()    
Max Wind Speed 16 mph    
Max Gust Speed -    
Visibility 5.6 miles    
Events Rain    
Averages and records for this station are not official NWS values.
T = Trace of Precipitation, MM = Missing Value Source: Averaged Metar Reports

Daily Weather History Graph

Daily Weather History Graph

Search for Another Location

Airport or City:

Trip Planner

Search our weather history database for the weather conditions in past years. The results will help you decide how hot, cold, wet, or windy it might be!

Date:

Astronomy

Jan. 12, 2012 Rise Set
Actual Time 8:37 AM GMT 4:47 PM GMT
Civil Twilight 7:57 AM GMT 5:26 PM GMT
Nautical Twilight 7:15 AM GMT 6:09 PM GMT
Astronomical Twilight 6:34 AM GMT 6:49 PM GMT
Moon 9:11 PM GMT (1/12) 9:43 AM GMT (1/12)
Length of Visible Light 9h 28m
Length of Day
8h 10m
Waning Gibbous, 89% of the Moon is Illuminated
Jan 12
Waning Gibbous
Jan 16
Last Quarter
Jan 23
New
Jan 31
First Quarter
Feb 7
Full

Hourly Weather History & Observations

Time (GMT) Temp. Windchill Dew Point Humidity Pressure Visibility Wind Dir Wind Speed Gust Speed Precip Events Conditions
12:00 AM 49 °F - 49 °F 99% 30.44 in 7 mi SW 13.4 mph - - Rain Light Drizzle
12:00 AM 48.2 °F - 48.2 °F 100% 30.42 in 6.2 mi SW 12.7 mph - N/A   Light Drizzle
12:30 AM 48.2 °F - 48.2 °F 100% 30.42 in 6.2 mi WSW 12.7 mph - N/A   Overcast
1:00 AM 48.2 °F - 48.2 °F 100% 30.42 in 6.2 mi WSW 11.5 mph - N/A   Mostly Cloudy
1:30 AM 48.2 °F - 48.2 °F 100% 30.39 in 6.2 mi WSW 11.5 mph - N/A   Mostly Cloudy
2:00 AM 50.0 °F - 50.0 °F 100% 30.39 in 6.2 mi WSW 12.7 mph - N/A   Mostly Cloudy
2:30 AM 50.0 °F - 50.0 °F 100% 30.39 in 6.2 mi WSW 13.8 mph - N/A   Mostly Cloudy
3:00 AM 50.0 °F - 50.0 °F 100% 30.39 in 6.2 mi WSW 10.4 mph - N/A   Mostly Cloudy
3:30 AM 50.0 °F - 50.0 °F 100% 30.39 in 6.2 mi WSW 11.5 mph - N/A   Mostly Cloudy
4:00 AM 50.0 °F - 48.2 °F 94% 30.39 in 6.2 mi West 16.1 mph - N/A   Mostly Cloudy
4:30 AM 50.0 °F - 48.2 °F 94% 30.39 in 6.2 mi West 13.8 mph - N/A   Mostly Cloudy
5:00 AM 50.0 °F - 48.2 °F 94% 30.39 in 6.2 mi West 13.8 mph - N/A   Mostly Cloudy
5:30 AM 50.0 °F - 48.2 °F 94% 30.39 in 6.2 mi West 11.5 mph - N/A   Mostly Cloudy
6:00 AM 49 °F - 48 °F 94% 30.41 in 17 mi West 11.2 mph - -   Partly Cloudy
6:00 AM 50.0 °F - 48.2 °F 94% 30.39 in 6.2 mi West 11.5 mph - N/A   Mostly Cloudy
6:30 AM 48.2 °F - 46.4 °F 93% 30.39 in 6.2 mi West 10.4 mph - N/A   Mostly Cloudy
7:00 AM 48.2 °F - 46.4 °F 93% 30.39 in 6.2 mi West 9.2 mph - N/A   Mostly Cloudy
7:30 AM 48.2 °F - 46.4 °F 93% 30.39 in 6.2 mi West 11.5 mph - N/A   Mostly Cloudy
8:00 AM 48.2 °F - 46.4 °F 93% 30.39 in 6.2 mi West 10.4 mph - N/A   Mostly Cloudy
8:30 AM 48.2 °F - 46.4 °F 93% 30.42 in 6.2 mi West 12.7 mph - N/A   Mostly Cloudy
9:00 AM 48.2 °F - 48.2 °F 100% 30.42 in 6.2 mi West 9.2 mph - N/A   Mostly Cloudy
9:30 AM 48.2 °F - 46.4 °F 93% 30.42 in 6.2 mi West 12.7 mph - N/A   Scattered Clouds
10:00 AM 48.2 °F - 46.4 °F 93% 30.42 in 6.2 mi West 10.4 mph - N/A   Scattered Clouds
10:30 AM 50.0 °F - 46.4 °F 87% 30.45 in 6.2 mi WSW 9.2 mph - N/A   Mostly Cloudy
11:00 AM 48.2 °F - 48.2 °F 100% 30.45 in 6.2 mi West 10.4 mph - N/A   Mostly Cloudy
11:30 AM 50.0 °F - 48.2 °F 94% 30.45 in 6.2 mi WSW 10.4 mph - N/A   Mostly Cloudy
12:00 PM 51 °F - 48 °F 86% 30.47 in 25 mi West 13.4 mph - -   Mostly Cloudy
12:00 PM 51.8 °F - 48.2 °F 88% 30.45 in 6.2 mi West 12.7 mph - N/A   Mostly Cloudy
12:30 PM 51.8 °F - 48.2 °F 88% 30.45 in 6.2 mi WSW 10.4 mph - N/A   Mostly Cloudy
1:00 PM 51.8 °F - 48.2 °F 88% 30.45 in 6.2 mi West 11.5 mph - N/A   Mostly Cloudy
1:30 PM 51.8 °F - 48.2 °F 88% - 6.2 mi West 10.4 mph - N/A   Mostly Cloudy
2:00 PM 51.8 °F - 48.2 °F 88% 30.42 in 6.2 mi WNW 9.2 mph - N/A   Mostly Cloudy
2:30 PM 51.8 °F - 48.2 °F 88% 30.42 in 6.2 mi WNW 10.4 mph - N/A   Mostly Cloudy
3:00 PM 51.8 °F - 48.2 °F 88% 30.42 in 6.2 mi WNW 10.4 mph - N/A   Mostly Cloudy
3:30 PM 51.8 °F - 48.2 °F 88% 30.45 in 6.2 mi WNW 10.4 mph - N/A   Mostly Cloudy
4:00 PM 51.8 °F - 48.2 °F 88% 30.45 in 6.2 mi West 5.8 mph - N/A   Scattered Clouds
4:30 PM 51.8 °F - 48.2 °F 88% 30.45 in 6.2 mi West 3.5 mph - N/A   Mostly Cloudy
5:00 PM 50.0 °F - 48.2 °F 94% 30.45 in 6.2 mi NW 5.8 mph - N/A Rain Light Rain
5:30 PM 50.0 °F - 48.2 °F 94% 30.48 in 6.2 mi North 8.1 mph - N/A   Light Drizzle
6:00 PM 49 °F - 49 °F 99% 30.50 in 1 mi NNW 11.2 mph - - Rain Light Drizzle
6:00 PM 48.2 °F - 48.2 °F 100% 30.48 in 0.9 mi NNW 10.4 mph - N/A   Light Drizzle
6:30 PM 48.2 °F - 48.2 °F 100% 30.48 in 1.2 mi North 5.8 mph - N/A   Light Drizzle
7:00 PM 48.2 °F - 48.2 °F 100% 30.48 in 3.7 mi NNW 5.8 mph - N/A   Light Drizzle
7:30 PM 48.2 °F - 48.2 °F 100% 30.51 in 5.6 mi North 5.8 mph - N/A   Light Drizzle
8:00 PM 48.2 °F - 48.2 °F 100% 30.51 in 3.7 mi NW 4.6 mph - N/A   Scattered Clouds
8:30 PM 48.2 °F - 48.2 °F 100% 30.51 in 2.2 mi NNW 3.5 mph - N/A   Mostly Cloudy
9:00 PM 48.2 °F - 48.2 °F 100% 30.51 in 2.5 mi NNE 3.5 mph - N/A   Overcast
9:30 PM 48.2 °F - 48.2 °F 100% 30.51 in 2.8 mi North 3.5 mph - N/A   Mostly Cloudy
10:00 PM 46.4 °F 44.3 °F 46.4 °F 100% 30.51 in 3.1 mi North 4.6 mph - N/A   Scattered Clouds
10:30 PM 46.4 °F 44.3 °F 46.4 °F 100% 30.51 in 5.0 mi North 4.6 mph - N/A   Scattered Clouds
11:00 PM 46.4 °F 45.2 °F 46.4 °F 100% 30.54 in 2.2 mi WNW 3.5 mph - N/A   Mostly Cloudy
11:30 PM 46.4 °F 45.2 °F 46.4 °F 100% 30.54 in 5.0 mi NW 3.5 mph - N/A   Mostly Cloudy